Location: *
(49.5658°N, 2.8842°E)
Time: 00:09:59
(UTC+00:00)

Daily predictions for brighter satellites

Satellite Brightness Start Highest point End
(mag) Time Altitude Azimuth Time Altitude Azimuth Time Altitude Azimuth
CENTAUR R/B 4.4 01:23:41 28° N 01:24:51 29° N 01:31:46 10° ENE
SL-16 R/B 4.0 02:02:36 28° NE 02:02:36 28° NE 02:05:17 10° NE
ADEOS II 4.1 01:59:47 10° NNE 02:02:01 24° NE 02:02:01 24° NE
USA 267 4.1 02:07:07 10° ENE 02:11:54 44° E 02:11:54 44° E
ARIANE 5 R/B 4.5 02:17:46 10° NNE 02:19:49 24° NNE 02:19:49 24° NNE
COSMOS 2455 4.4 02:27:14 27° ESE 02:27:37 27° ESE 02:32:34 10° NE
Cosmos 2322 Rocket 3.3 02:34:29 40° NE 02:34:29 40° NE 02:37:59 10° NNE
USA 229 DEB 4.5 02:33:32 42° N 02:33:32 42° N 02:39:11 10° NE
USA 229 4.5 02:33:39 42° N 02:33:39 42° N 02:39:16 10° NE
NOSS 3-1 (A) 4.2 02:38:09 45° N 02:38:09 45° N 02:43:19 10° NE
ATLAS 5 CENTAUR R/B 4.3 02:43:37 25° N 02:44:04 25° NNE 02:51:12 10° ENE
Cosmos 2360 Rocket 3.0 02:45:05 48° E 02:45:05 48° E 02:49:45 10° NE
USA 234 3.5 02:42:27 10° SE 02:47:40 60° SE 02:47:40 60° SE
Cosmos 1980 Rocket 3.9 02:52:18 23° N 02:52:18 23° N 02:55:11 10° NNE
NOSS 3-1 (C) 4.4 02:55:45 37° NNW 02:55:45 37° NNW 03:01:41 10° NE
ATLAS 3B R/B 3.8 02:58:31 18° NNW 03:02:50 38° NNE 03:09:05 10° E
Resurs 1-4 Rocket 4.2 03:06:16 10° N 03:07:40 16° NNW 03:07:40 16° NNW
Cosmos 2098 Rocket 4.4 03:09:04 45° S 03:11:41 82° E 03:19:09 10° N
Cosmos 1809 Rocket 4.3 03:13:48 84° SSW 03:14:01 89° W 03:20:14 10° N
CENTAUR R/B 3.8 03:10:52 14° NW 03:17:21 51° NE 03:25:37 10° ESE
Cosmos 2278 Rocket 3.5 03:13:50 10° NNW 03:19:08 38° NE 03:24:24 10° ESE
Cosmos 2333 Rocket 3.5 03:17:32 20° SSE 03:20:44 36° ESE 03:25:54 10° NE
Cosmos 1844 3.7 03:24:00 71° S 03:24:00 71° S 03:29:08 10° SSE
USA 238 DEB 3.8 03:19:19 28° NW 03:23:30 84° NE 03:30:55 10° SE
USA 238 3.8 03:19:24 28° NW 03:23:36 84° NE 03:31:01 10° SE
Lacrosse 4 Rocket 3.6 03:32:28 16° N 03:32:28 16° N 03:33:48 10° N
Cosmos 1975 Rocket 4.0 03:32:11 41° N 03:32:11 41° N 03:35:09 10° N
Meteor 2-21 Rocket 4.4 03:30:54 43° S 03:33:09 90° NW 03:39:23 10° N
Gblst 52 Del rocket 4.0 03:33:03 68° NW 03:33:34 74° N 03:39:16 10° E
SL-08 ROCKET BODY 4.2 03:33:02 59° SSW 03:34:12 82° W 03:40:13 10° N
Nadezhda 1 Rocket 4.4 03:29:01 10° NNW 03:33:53 45° NW 03:33:53 45° NW
ADEOS 3.9 03:30:19 10° NNE 03:35:32 64° ESE 03:38:16 28° S
Cosmos 2333 4.4 03:34:26 41° S 03:36:20 66° ESE 03:41:56 10° NNE
CZ-2D R/B 4.3 03:35:23 10° NNW 03:36:13 12° NNW 03:36:13 12° NNW
Meteor 2-14 Rocket 4.3 03:37:09 53° SSW 03:38:37 75° WNW 03:44:49 10° N
Cosmos 1745 Rocket 4.0 03:40:15 56° W 03:40:34 57° WNW 03:46:44 10° N
Okean 2 3.7 03:43:41 57° N 03:43:41 57° N 03:47:01 10° N
BREEZE-M R/B 3.8 03:42:48 53° SSW 03:43:48 65° SSE 03:52:52 10° ENE
SL-16 R/B 3.1 03:44:29 33° NW 03:44:29 33° NW 03:49:17 10° NNE
ADEOS II 3.3 03:39:47 10° N 03:42:57 27° NNW 03:42:57 27° NNW
Cosmos 2322 3.6 03:44:05 49° SSW 03:45:42 89° SE 03:51:30 10° NNE
Cosmos 1378 3.6 03:46:03 59° ESE 03:46:09 60° E 03:49:52 10° NNE
Celestis-02/Orion 38 4.4 03:42:35 10° SSE 03:47:45 79° WSW 03:53:06 10° NNW
NOSS 3-2 (A) 3.9 03:44:08 16° NW 03:50:19 83° SW 03:58:39 10° SE
Cosmos 2181 Rocket 3.9 03:45:42 10° N 03:52:09 89° W 03:58:26 10° S
H-2A R/B 3.0 03:49:31 10° NNE 03:53:32 57° ESE 03:56:28 19° S
CBERS 1 LM4 rocket 4.4 03:49:41 10° N 03:54:51 66° WNW 03:55:45 55° WSW
USA 267 3.3 03:50:11 10° ENE 03:56:41 68° NNW 03:59:15 39° W
NOSS 2-2 (E) 3.7 03:56:51 48° SSE 03:57:31 57° SE 04:01:43 10° NE
Cosmos 2219 Rocket 2.4 03:53:56 22° S 03:57:37 67° ESE 04:03:10 10° NNE
Cosmos 2237 4.3 03:57:27 48° W 03:58:30 55° NW 04:04:09 10° NNE
Meteor 2-16 Rocket 4.3 03:55:17 27° SSW 03:58:42 71° WNW 04:04:48 10° N
ARIANE 5 R/B 4.0 03:57:35 10° N 04:00:09 21° NW 04:00:09 21° NW
Cosmos 2237 Rocket 3.9 03:58:20 10° SSE 04:03:16 32° ESE 04:08:16 10° NE
PSLV R/B 3.4 03:59:38 10° N 04:03:53 73° WNW 04:04:41 56° SW
Meteor 1-31 Rocket 4.1 04:04:49 10° NNE 04:08:27 40° E 04:12:01 10° S
Cosmos 1025 Rocket 3.1 04:05:46 10° S 04:10:01 74° E 04:14:18 10° NNE
NOSS 8 (F) 4.1 04:11:13 82° E 04:11:13 82° E 04:14:17 10° NE
COSMOS 2428 2.7 04:07:23 20° SSW 04:11:27 83° ESE 04:17:10 10° NNE
NOSS 3-2 (C) 4.0 04:04:46 10° NW 04:12:13 87° SW 04:20:35 10° SE
COSMOS 2455 2.8 04:10:25 34° SW 04:13:05 68° NW 04:19:09 10° NNE
Cosmos 1470 3.0 04:12:51 10° N 04:16:49 70° E 04:20:42 10° SSE
CZ-2C R/B 2.9 04:11:52 10° NNE 04:17:03 67° ESE 04:22:12 10° S
Cosmos 2322 Rocket 3.4 04:16:19 24° NW 04:17:04 24° NW 04:21:36 10° NNE
Cosmos 921 Rocket 2.8 04:15:21 10° NNW 04:19:43 80° WSW 04:23:57 10° SSE
Cosmos 1733 3.3 04:16:06 10° NNW 04:19:53 52° W 04:23:38 10° S
IDEFIX/ARIANE 42P 2.6 04:16:22 10° N 04:21:31 55° WNW 04:24:49 22° SW
Cosmos 389 Rocket 4.3 04:18:46 10° SSE 04:21:52 32° E 04:24:59 10° NNE
Cosmos 1536 Rocket 3.4 04:18:25 15° SSW 04:21:56 74° W 04:26:18 10° N
Cosmos 1842 3.2 04:21:10 30° SSW 04:22:56 64° WNW 04:26:52 10° N
Cosmos 1707 4.0 04:21:27 10° SSE 04:25:10 44° E 04:28:55 10° NNE
Cosmos 2360 Rocket 3.0 04:26:53 28° W 04:28:32 33° NW 04:33:38 10° NNE
NOSS 3-4 (A) 4.5 04:26:01 10° SSW 04:31:43 45° ESE 04:37:44 10° NE
NOSS 3-4 (C) 4.5 04:26:06 10° S 04:31:49 45° ESE 04:37:50 10° NE
USA 234 4.0 04:27:06 10° S 04:32:39 29° SW 04:35:02 23° W
NOSS 2-2 (D) 3.2 04:33:18 28° SW 04:35:10 83° NW 04:39:31 10° NE
Cosmos 1980 Rocket 4.4 04:35:17 10° NNW 04:36:19 10° NNW 04:37:20 10° N
PAYLOAD A 3.8 04:31:39 10° N 04:36:26 72° WNW 04:41:19 10° SSW
GP-B 4.4 04:32:39 10° SSE 04:36:51 44° E 04:41:05 10° N
ALOS 4.4 04:37:41 10° NNE 04:41:47 29° E 04:45:50 10° SSE
CZ-4B R/B 2.8 04:40:52 10° NNE 04:45:04 84° WNW 04:49:00 10° SSW
Cosmos 2251 Rocket 4.2 04:45:19 21° WSW 04:48:15 36° NW 04:53:14 10° N
Meteor 1-16 Rocket 4.5 04:43:32 10° N 04:48:51 66° ENE 04:54:09 10° SSE
Cosmos 614 Rocket 4.3 04:43:43 10° SSW 04:48:55 72° ESE 04:54:08 10° NNE
Cosmos 2154 Rocket 4.3 04:43:17 10° S 04:49:25 71° E 04:55:37 10° NNE
Aureole 1 Rocket 3.9 04:44:25 10° SW 04:50:47 51° WNW 04:55:39 10° NNE
Cosmos 1606 Rocket 3.5 04:48:10 10° N 04:52:32 87° E 04:56:51 10° S
Cosmos 1356 4.3 04:50:35 10° N 04:53:59 52° ENE 04:57:22 10° SSE
ATLAS 3B R/B 2.6 04:47:23 10° NW 04:54:05 76° SW 05:00:54 10° SSE
SL-16 R/B 4.2 04:49:18 10° SSE 04:54:13 31° ESE 04:59:08 10° NE
Cosmos 44 Rocket 4.3 04:50:54 10° NNW 04:55:28 44° NE 04:59:58 10° ESE
Cosmos 292 Rocket 4.1 04:52:13 10° NW 04:56:44 42° WSW 05:01:16 10° S
Cosmos 2184 Rocket 4.0 04:53:25 10° SSW 04:59:35 66° WNW 05:05:52 10° N
MSX 4.1 04:54:16 10° N 04:59:41 44° WNW 05:05:04 10° SW
Okean 1-7 Rocket 4.5 04:55:35 10° S 04:59:54 54° E 05:04:17 10° NNE
Cosmos 2297 4.2 04:54:45 10° NNW 05:00:31 67° ENE 05:06:13 10° SE
Cosmos 44 3.1 04:57:20 10° NW 05:01:36 52° WSW 05:05:47 10° SSE
Cosmos 1943 Rocket 4.0 04:57:38 10° NNW 05:02:35 30° NE 05:07:32 10° ESE
Cosmos 2278 Rocket 2.5 04:57:56 10° NW 05:03:20 45° WSW 05:08:41 10° S
Cosmos 1726 2.9 05:00:17 10° N 05:03:53 54° ENE 05:07:28 10° SSE
Cosmos 2333 Rocket 2.6 04:59:36 11° SW 05:04:55 45° NW 05:10:24 10° NNE
Helios 1A Rocket 3.9 05:01:23 10° NNE 05:05:28 52° E 05:09:31 10° S
Meteor 1-21 4.5 05:00:42 10° SW 05:06:02 45° WNW 05:11:26 10° N
CENTAUR R/B 3.2 05:00:40 10° NW 05:08:30 63° SW 05:17:01 10° SSE
Nadezhda 3 Rocket 4.0 05:02:23 10° NNW 05:08:46 74° W 05:15:05 10° S
PSLV R/B 3.6 05:06:40 10° N 05:10:25 73° WNW 05:14:05 10° SSW
Cosmos 1953 2.5 05:06:45 10° NNW 05:10:41 49° W 05:14:34 10° S
NOSS 2-2 (C) 3.8 05:08:50 14° WSW 05:11:49 44° NW 05:16:07 10° NE
ATLAS 2AS CENTAUR R/B 3.1 05:04:16 10° SW 05:12:20 81° NW 05:20:23 10° NE
MOS 1-B 4.4 05:08:12 10° NNE 05:14:03 88° ESE 05:19:53 10° SSW
Cosmos 1437 Rocket 4.0 05:10:31 10° SSE 05:14:07 44° E 05:17:45 10° NNE
Cosmos 676 Rocket 4.5 05:09:46 10° S 05:15:00 67° ESE 05:20:14 10° NNE
Cosmos 1758 4.3 05:13:17 10° NNW 05:16:37 26° W 05:19:57 10° SW
COSMO-SKYMED 1 2.6 05:14:27 10° S 05:18:43 56° W 05:23:01 10° NNW
SeaSat 1 4.2 05:19:05 10° NE 05:23:40 37° ESE 05:28:13 10° S
Meteor 1-4 Rocket 2.5 05:21:04 10° SSW 05:24:32 58° WNW 05:27:59 10° N
Gblst 52 Del rocket 4.3 05:20:01 10° WNW 05:25:30 89° NNE 05:31:32 10° ESE
Cosmos 1190 Rocket 4.0 05:20:18 10° SSW 05:25:35 67° WNW 05:30:53 10° NNE
SJ-12 3.9 05:21:58 10° NNE 05:26:04 82° WNW 05:30:09 10° SSW
USA 116 3.6 05:23:52 10° S 05:27:46 62° WSW 05:31:17 10° NNW
H-2A R/B 3.9 05:25:55 10° NNW 05:28:42 18° WNW 05:31:32 10° WSW
Cosmos 407 Rocket 3.6 05:24:30 10° SW 05:29:33 55° WNW 05:34:37 10° NNE
SL-16 R/B 4.2 05:28:25 10° NW 05:30:11 11° NNW 05:31:55 10° N
Okean O Rocket 1.8 05:26:39 10° NNE 05:31:07 81° ESE 05:35:30 10° SSW
RESURS DK-1 3.4 05:30:04 10° S 05:34:05 51° ESE 05:38:06 10° NE
Cosmos 1726 Rocket 3.8 05:30:28 10° NNW 05:34:35 43° W 05:38:40 10° SSW
BREEZE-M DEB (TANK) 4.4 05:33:54 10° SW 05:37:51 26° SSE 05:40:17 10° ESE
USA 267 3.8 05:33:03 10° ENE 05:39:14 47° N 05:45:26 10° WNW
PAYLOAD B 4.2 05:33:56 10° NNE 05:39:32 76° WNW 05:45:04 10° SSW
CZ-4B DEB 4.2 05:34:12 10° N 05:39:40 69° WNW 05:45:04 10° SSW
Cosmos 2219 Rocket 3.2 05:37:18 10° WSW 05:42:03 28° NW 05:46:49 10° NNE
